Terminal Aerodrome Forecast
Issued by NWS

Home | Current Version | Previous Version | Text Only | Print | Product List | Glossary On
Versions: 1 2 3 4 5 6 7 8 9 10 11 12
000
FTUS45 KABQ 010530
TAFSAF
TAF
KSAF 010530Z 0106/0206 14010KT P6SM SKC
     FM010900 01008KT P6SM SKC
     FM011800 25007KT P6SM FEW080
     FM012200 12011KT P6SM VCTS SCT080CB BKN150
     FM020000 11014KT P6SM VCSH SCT080 BKN120
     FM020300 07008KT P6SM BKN120=

USA.gov is the U.S. government's official web portal to all federal, state and local government web resources and services.